ad-center.com alexa rank chart, ad-center.com alexa rank daily changes

ad-center.com alexa rank chart, ad-center.com alexa rank daily changes

ad-center.com
Actual rank:
46 105

RANK HISTORY

Date Rank Diff
2017/07/24 46 105 +10
2017/07/23 46 095 -293
2017/07/22 46 388 -170
2017/07/21 46 558 -538
2017/07/20 47 096 +34
2017/07/19 47 062 -1 541
2017/07/18 48 603 +495
2017/07/17 48 108 +131
2017/07/16 47 977 +169
2017/07/15 47 808 -486
2017/07/14 48 294 +548
2017/07/13 47 746 -904
2017/07/12 48 650 -547
2017/07/11 49 197 +483
2017/07/10 48 714 -226
2017/07/09 48 940 -596
2017/07/08 49 536 -852
2017/07/07 50 388 -107
2017/07/06 50 495 -503
2017/07/05 50 998 +79
2017/07/04 50 919 +66
2017/07/03 50 853 -339
2017/07/02 51 192 +1 037
2017/07/01 50 155 -1 015
2017/06/30 51 170 -51
2017/06/29 51 221 -482
2017/06/28 51 703 +710
2017/06/27 50 993 +24
2017/06/26 50 969 -759
2017/06/25 51 728 -114
2017/06/24 51 842 -413
2017/06/23 52 255 -19
2017/06/22 52 274 -345
2017/06/21 52 619 -466
2017/06/20 53 085 -30
2017/06/19 53 115 +339
2017/06/18 52 776 -488
2017/06/17 53 264 -522
2017/06/16 53 786 -820
2017/06/15 54 606 +125
2017/06/14 54 481 -100
2017/06/13 54 581 -2
2017/06/12 54 583 +336
2017/06/11 54 247 -78
2017/06/10 54 325 +267
2017/06/09 54 058 +766
2017/06/08 53 292 +47
2017/06/07 53 245 +369
2017/06/06 52 876 +848
2017/06/05 52 028 +310
2017/06/04 51 718 -287
2017/06/03 52 005 +317
2017/06/02 51 688 -675
2017/06/01 52 363 +205
2017/05/31 52 158 -322
2017/05/30 52 480 +894
2017/05/29 51 586 +804
2017/05/28 50 782 -843
2017/05/27 51 625 +573
2017/05/26 51 052 +764
2017/05/25 50 288

WIDGET FOR YOUR SITE

DOMAINS WITH THE NEAREST RANK

Domain Rank
un-cours-en-miracles.org 46 100
humankinetics.com 46 101
drakelounge.com 46 102
shandian.biz 46 103
put.io 46 104
ad-center.com 46 105
mp4villa.in 46 106
cgchannel.com 46 107
freejinger.org 46 108
nanj-matome.com 46 109
eroshare.com 46 110

DOMAINS WITH THE NEAREST RANK BY TLD .com

Domain Rank
codeforge.com 46 093
todaysppc.com 46 095
bestxxxpics.com 46 096
humankinetics.com 46 101
drakelounge.com 46 102
ad-center.com 46 105
cgchannel.com 46 107
nanj-matome.com 46 109
eroshare.com 46 110
alisoft.com 46 114
treasuredata.com 46 115